Location: La Chapelle
(48.3135°N, 1.3085°W)
Time: 08:58:45
(UTC+00:00)

Helios 1A Rocket - Pass Details

Date: 03 March 2021
Orbit: 563 x 585 km, 98.3° (Epoch: 12 April)

Event Time Altitude Azimuth Distance (km) Brightness Sun altitude
Rises 19:14:07 0° 171° (S) 2,767 6.2 -14.3°
Reaches altitude 10° 19:16:16 10° 174° (S) 1,871 5.4 -14.7°
Maximum altitude 19:20:18 66° 257° (WSW) 624 3.3 -15.3°
Drops below altitude 10° 19:24:20 10° 341° (NNW) 1,875 5.9 -16.0°
Sets 19:26:30 0° 344° (NNW) 2,775 6.7 -16.4°
